Probability
0 1 3 7 10 10 11 11 12 12 12 9 4 1 0 0 0 0 0 0 0 0 0 0 0 0 0 0 0 0 0 0 0 0 0 0 0 0 0 0 0 0 0
0 0 2 5 8 10 10 10 11 12 12 10 6 2 0 0 0 0 0 0 0 0 0 0 0 0 0 0 0 0 0 0 0 0 0 0 0 0 0 0 0 0 0
0 0 0 2 6 8 9 10 10 11 12 11 8 2 0 0 0 0 0 0 0 0 0 0 0 0 0 0 0 0 0 0 0 0 0 0 0 0 0 0 0 0 0
0 0 0 1 4 7 9 9 9 9 11 12 9 3 0 0 0 0 0 0 0 0 0 0 0 0 0 0 0 0 0 0 0 0 0 0 0 0 0 0 0 0 0
0 0 0 1 4 6 6 7 7 8 9 10 8 4 1 0 0 0 0 0 0 0 0 0 0 0 0 0 0 0 0 0 0 0 0 0 0 0 0 0 0 0 0
0 0 0 1 3 5 5 5 6 6 7 8 7 5 2 0 0 0 0 0 0 0 0 0 0 0 0 0 0 0 0 0 0 0 0 0 0 0 0 0 0 0 0
0 0 0 0 2 4 4 4 5 5 5 5 5 5 3 0 0 0 0 0 0 0 0 0 0 0 0 0 0 0 0 0 0 0 0 0 0 0 0 0 0 0 0
0 0 0 0 1 3 4 4 5 5 3 2 3 3 2 0 0 0 0 0 0 0 0 0 0 0 0 0 0 0 0 0 0 0 0 0 0 0 0 0 0 0 0
0 0 0 0 0 1 3 4 5 5 4 2 2 1 1 0 0 0 0 0 0 0 0 0 0 0 0 0 0 0 0 0 0 0 0 0 0 0 0 0 0 0 0
0 0 0 0 0 1 2 3 5 5 4 3 1 1 0 0 0 0 0 0 0 0 0 0 0 0 0 0 0 0 0 0 0 0 0 0 0 0 0 0 0 0 0
0 0 0 0 0 0 1 2 4 5 5 4 2 1 1 1 0 0 0 0 0 0 0 0 0 0 0 0 0 0 0 0 0 0 0 0 0 0 0 0 0 0 0
0 0 0 0 0 0 1 2 3 4 5 4 3 3 2 1 0 0 0 0 0 0 0 0 0 0 0 0 0 0 0 0 0 0 0 0 0 0 0 0 0 0 0
0 0 0 0 0 0 1 2 3 3 4 4 3 4 4 2 1 0 0 0 0 0 0 0 0 0 0 0 0 0 0 0 0 0 0 0 0 0 0 0 0 0 0
0 0 0 0 0 0 0 1 2 3 4 4 4 5 5 4 2 1 0 0 0 0 0 0 0 0 0 0 0 0 0 0 0 0 0 0 0 0 0 0 0 0 0
0 0 0 0 0 0 0 0 1 2 4 4 4 5 6 4 3 2 1 0 0 0 0 0 0 0 0 0 0 0 0 0 0 0 0 0 0 0 0 0 0 0 0
0 0 0 0 0 0 0 0 0 2 3 4 3 4 6 5 4 2 1 0 0 0 0 0 0 0 0 0 0 0 0 0 0 0 0 0 0 0 0 0 0 0 0
0 0 0 0 0 0 0 0 1 2 3 3 2 3 5 5 3 1 0 0 0 0 0 0 0 0 0 0 0 0 0 0 0 0 0 0 0 0 0 0 0 0 0
0 0 0 0 0 0 1 1 2 3 3 2 1 2 3 4 2 1 0 0 0 0 0 0 0 0 0 0 0 0 0 0 0 0 0 0 0 0 0 0 0 0 0
0 0 0 0 0 1 2 3 3 3 3 1 0 1 1 1 1 0 0 0 0 0 0 0 0 0 0 0 0 0 0 0 0 0 0 0 0 0 0 0 0 0 0
0 0 0 0 1 2 3 3 3 3 2 1 0 0 0 0 0 0 0 0 0 0 0 0 0 0 0 0 0 0 0 0 0 0 0 0 0 0 0 0 0 0 0
0 0 0 0 1 2 2 2 2 2 1 0 0 0 0 0 0 0 0 0 0 0 0 0 0 0 0 0 0 0 0 0 0 0 0 0 0 0 0 0 0 0 0
0 0 0 0 0 1 1 1 1 1 0 0 0 0 0 0 1 1 0 0 0 0 0 0 0 0 0 0 0 0 0 0 0 0 0 0 0 0 0 0 0 0 0
0 0 0 0 0 0 0 0 0 0 0 0 0 0 0 0 1 2 1 0 0 0 0 0 0 0 0 0 0 0 0 0 0 0 0 0 0 0 0 0 0 0 0
0 0 0 0 0 0 0 0 0 0 0 0 0 0 0 0 1 1 1 0 0 0 0 0 0 0 0 0 0 0 0 0 0 0 0 0 0 0 0 0 0 0 0
0 0 0 0 0 0 0 0 0 0 0 0 0 0 0 0 0 0 0 0 0 0 0 0 0 0 0 0 0 0 0 0 0 0 0 0 0 0 0 0 0 0 0
0 0 0 0 0 0 0 0 0 0 0 0 0 0 0 0 0 0 0 0 0 0 0 0 0 0 0 0 0 0 0 0 0 0 0 0 0 0 0 0 0 0 0
Wind_Speed
12 10 11 11 11 12 14 15 16 16 14 11 11 11 10 9 8 8 9 10 10 10 8 6 6 6 6 6 6 4 3 2 2 2 2 2 1 1 1 1 1 1 1
8 9 10 11 14 15 16 16 17 17 17 13 11 8 8 6 6 7 9 11 11 11 9 9 7 7 6 6 6 5 3 2 2 3 2 2 3 2 1 1 1 1 1
12 11 12 13 13 15 17 16 18 18 18 15 9 7 6 5 6 9 9 11 12 11 10 10 9 8 8 7 7 6 6 4 2 2 3 2 3 3 2 1 1 1 1
11 10 11 12 14 16 16 16 17 17 17 16 14 15 12 11 12 9 8 9 11 12 11 11 10 9 7 8 7 6 5 5 4 2 1 2 3 1 2 3 1 1 2
10 11 12 13 14 14 14 15 16 17 17 18 18 17 14 10 7 7 10 10 10 11 12 12 11 10 8 9 8 7 6 5 5 4 3 2 1 1 2 3 3 2 1
9 9 9 10 11 11 11 13 15 17 17 18 19 19 17 13 11 11 12 10 8 9 12 12 11 11 9 9 9 8 8 6 5 4 4 4 3 3 3 3 3 3 2
7 8 7 9 10 10 12 13 15 17 18 19 19 20 19 17 16 14 13 11 9 9 13 12 11 10 9 9 8 8 8 7 7 6 4 3 3 3 3 2 2 2 2
6 7 8 9 10 11 12 13 15 17 18 19 19 18 17 14 12 13 12 13 11 11 12 13 12 11 10 10 9 7 7 7 7 7 6 4 3 3 3 3 3 1 2
5 6 7 8 10 11 13 15 16 16 17 18 18 17 17 15 14 13 12 10 9 9 11 13 12 11 11 11 10 7 8 7 7 6 6 4 3 3 3 2 3 3 2
6 5 6 7 8 10 11 13 15 16 16 17 17 14 16 16 14 12 14 13 12 11 12 13 12 11 11 11 10 8 8 8 7 5 6 5 3 3 3 3 2 3 3
7 6 6 6 6 7 8 11 13 13 13 15 15 14 14 14 13 13 14 13 12 12 13 13 13 12 12 11 10 9 9 9 8 7 7 6 5 4 3 3 3 2 3
7 5 5 4 4 6 7 9 11 12 13 14 14 14 13 13 13 14 13 13 13 13 13 13 13 12 12 12 12 11 10 10 10 9 8 7 5 5 4 3 3 3 3
8 6 5 4 4 5 6 7 9 11 11 11 12 13 13 14 14 14 13 13 13 12 12 13 13 13 12 12 11 11 11 10 10 9 9 8 7 6 4 4 4 3 2
8 7 6 5 4 4 5 6 7 9 9 10 12 13 14 14 14 13 12 13 13 13 13 13 12 12 12 11 11 10 10 9 8 8 8 8 8 8 7 5 5 4 3
10 8 7 5 4 4 4 5 6 7 9 10 11 13 12 11 11 11 11 12 12 12 12 12 11 11 10 10 12 11 10 10 8 7 6 6 7 8 7 5 5 5 3
10 10 8 7 5 5 4 4 6 7 8 10 11 10 10 11 12 12 12 12 12 11 12 12 12 11 9 14 17 14 10 10 9 8 6 6 7 8 9 8 8 7 5
10 10 8 7 6 5 4 4 6 6 8 9 9 10 11 12 12 12 12 12 12 12 12 12 12 12 12 18 19 17 11 9 9 9 8 6 6 8 6 7 8 6 5
9 9 8 7 6 5 4 3 4 6 8 8 8 9 10 11 11 12 13 12 10 11 11 11 12 11 12 18 19 18 10 8 8 8 9 9 8 7 9 7 6 4 3
8 8 7 6 6 4 3 2 4 5 7 8 9 10 11 11 12 12 12 10 10 10 9 11 12 11 12 18 19 17 9 8 8 7 8 9 8 12 13 9 7 5 4
8 7 6 4 4 4 2 2 4 5 7 8 8 9 10 11 12 12 11 9 9 9 9 9 10 11 11 18 20 18 9 9 7 6 7 10 10 14 14 8 8 7 4
8 6 5 4 4 3 1 2 3 5 5 5 6 8 9 10 11 10 9 10 9 10 9 9 8 9 12 17 21 19 10 10 9 7 5 6 13 14 13 10 6 7 7
8 6 5 5 5 2 1 1 2 2 4 5 6 7 8 8 9 11 10 10 11 11 10 9 8 6 9 13 16 19 15 14 10 8 6 7 14 14 12 8 9 11 9
8 6 5 5 5 3 1 2 2 2 4 6 7 7 8 8 10 11 12 10 10 9 9 9 9 7 6 9 16 18 18 17 9 8 13 14 15 13 9 10 12 9 5
7 6 5 5 5 3 2 2 2 3 4 6 7 7 8 8 8 8 9 9 10 9 9 9 9 9 8 8 9 9 11 14 11 9 13 16 14 10 10 9 6 4 4
7 5 5 5 5 3 3 2 3 4 5 6 7 7 7 8 8 7 6 8 7 10 12 10 11 12 11 12 17 13 10 9 10 11 8 6 6 5 5 4 4 3 3
7 6 6 5 5 3 3 3 3 4 6 6 7 6 6 6 7 7 6 6 7 10 11 12 12 9 12 20 21 20 20 21 21 13 8 7 6 6 6 5 4 3 3
Wind_Direction
225 211 204 198 194 195 194 195 191 185 180 180 181 181 185 183 183 182 179 178 176 173 172 170 164 164 166 167 155 138 133 123 122 88 14 340 324 278 268 262 264 280 282
226 210 201 198 196 197 197 197 196 190 186 188 186 184 176 177 179 179 182 184 181 178 179 174 174 171 164 162 163 148 138 134 144 127 100 341 332 319 286 277 248 264 282
224 214 203 200 197 199 199 199 199 194 191 184 174 162 156 156 175 188 190 189 185 182 182 180 175 174 172 176 176 167 156 157 171 155 147 157 241 300 315 293 277 272 274
225 216 207 202 202 204 200 200 199 196 192 184 181 180 184 190 194 187 186 183 185 184 184 180 179 178 178 177 179 175 164 152 166 173 152 158 163 171 310 315 302 277 261
218 212 209 207 208 205 200 199 198 196 193 190 188 188 193 195 176 168 176 183 186 187 186 183 182 182 183 181 176 172 174 169 165 166 158 149 123 157 178 278 306 317 282
216 215 213 208 211 205 202 198 196 197 193 193 192 193 194 186 174 177 183 186 186 188 189 186 186 186 184 182 180 178 179 180 171 167 163 163 167 184 181 224 263 283 289
221 220 215 210 212 207 203 199 197 199 195 195 197 197 196 191 189 186 187 184 185 190 192 188 188 186 185 181 176 176 181 180 179 179 181 181 183 164 166 183 233 262 285
232 224 217 215 215 212 206 200 199 200 196 197 200 200 196 194 195 190 187 189 192 192 184 187 188 185 181 179 177 177 182 181 185 186 182 182 192 177 173 172 172 247 294
257 243 233 222 218 213 207 203 201 201 197 198 199 199 197 196 196 190 187 189 187 180 179 184 185 183 180 178 176 181 182 179 187 187 185 187 188 179 181 170 166 176 246
279 263 252 236 228 219 210 205 203 202 198 195 197 198 197 197 194 187 189 189 184 177 176 180 181 179 179 178 177 178 179 179 184 180 181 187 181 173 170 172 171 176 191
294 282 272 251 236 222 208 204 203 201 199 196 195 194 195 193 189 190 191 188 181 178 179 180 179 180 180 179 180 182 178 181 181 178 181 188 176 173 174 166 165 178 176
310 302 289 270 243 221 209 204 201 199 199 195 192 192 191 187 188 191 189 184 181 181 179 176 177 180 180 180 181 182 181 182 183 181 179 185 172 176 170 167 175 183 182
329 323 312 299 271 238 218 208 203 198 196 189 187 187 186 186 190 191 186 182 180 177 175 175 178 180 180 180 183 181 180 183 183 179 180 181 171 179 172 167 171 175 163
333 325 314 305 292 263 228 211 206 196 187 183 184 186 188 189 189 185 181 180 178 176 176 178 179 179 177 177 176 175 175 176 176 175 176 175 177 181 174 169 171 158 148
338 333 324 314 305 289 253 214 205 194 182 180 184 188 186 182 177 176 177 176 176 177 174 173 174 173 173 175 172 171 170 168 165 162 164 167 166 166 162 158 163 154 149
333 331 327 322 312 298 272 228 204 192 181 181 185 178 172 172 174 175 173 171 173 171 169 172 173 174 176 172 169 166 167 165 163 157 152 148 149 150 148 148 149 150 150
326 327 319 313 308 297 276 236 205 186 180 179 177 172 170 172 174 170 170 172 172 169 170 172 172 175 174 169 168 165 160 160 160 156 153 147 145 141 135 132 124 122 120
323 321 315 313 313 304 286 240 193 178 175 172 172 172 171 171 169 169 173 171 167 169 170 170 170 168 170 166 164 157 150 147 151 154 155 151 149 148 137 125 115 104 95
309 306 302 301 308 306 289 209 180 173 174 176 176 174 171 169 168 171 172 164 161 163 165 166 165 164 163 161 156 149 144 140 140 143 147 148 149 150 140 132 127 113 93
312 311 313 316 319 310 287 179 174 175 184 186 180 173 170 169 170 169 163 156 156 157 154 157 161 160 158 159 154 147 143 140 138 134 142 148 148 150 145 140 139 137 133
312 317 322 320 310 301 268 190 182 194 190 175 167 166 167 167 163 157 153 151 147 145 147 147 149 154 156 157 156 153 149 148 144 145 145 149 150 148 146 141 141 143 135
317 317 320 316 313 305 250 218 213 198 168 160 160 162 159 155 152 148 148 148 146 146 146 142 140 140 148 153 158 157 151 147 144 148 147 146 147 143 139 134 133 130 122
306 304 303 308 313 312 274 243 240 161 157 157 159 156 151 151 153 152 151 149 150 151 151 150 149 145 141 148 153 153 148 144 135 140 144 142 141 135 131 130 132 127 120
298 295 297 298 301 312 302 247 213 168 158 160 159 154 151 151 152 151 154 156 159 157 156 156 153 148 147 148 148 146 140 135 127 127 133 132 128 118 121 124 120 113 127
290 280 274 277 281 293 296 255 196 166 163 160 158 156 153 151 149 148 154 159 166 168 164 164 159 159 164 167 157 150 147 144 138 129 119 119 124 121 117 111 110 111 116
286 279 273 270 272 277 275 254 199 171 168 164 160 157 153 149 146 138 118 109 138 149 154 153 151 152 152 152 153 149 147 145 143 132 138 143 145 146 146 143 135 128 131